Cloud_Cover
6 1 0 0 0 0 0 0 0 0 0 0 0 0 0 0 0 0 0 0 0 0 16 0 0 0 0 0 68 100 99 93 100 100 99 46 62 5 89 58 4 99 20 0 4
1 0 0 0 0 0 0 0 0 0 0 0 0 0 0 0 0 0 0 0 0 0 0 0 0 0 0 1 78 83 99 62 85 98 93 13 2 3 0 0 40 4 40 1 2
0 0 0 0 0 0 0 0 0 0 0 0 0 0 0 4 0 0 0 0 0 0 0 0 0 0 0 0 49 84 100 100 8 72 5 96 73 0 8 3 3 16 0 0 0
0 0 0 0 0 0 0 0 0 0 0 0 0 0 0 0 0 0 0 0 0 0 0 0 0 0 0 0 15 87 38 33 99 91 5 23 84 0 25 88 3 0 0 0 0
0 0 0 0 0 0 0 0 0 0 0 0 0 6 0 0 0 0 0 0 0 0 0 0 0 0 0 0 40 28 99 50 52 3 8 96 66 0 19 97 13 0 0 0 0
0 0 0 0 0 0 0 0 0 0 0 0 10 20 0 0 0 0 0 0 0 0 0 0 0 0 0 0 3 51 57 45 11 55 1 56 70 0 6 4 22 0 0 0 0
0 0 0 0 0 0 0 0 0 0 0 4 34 1 0 0 0 0 0 0 0 0 0 0 0 0 0 0 0 4 76 5 3 4 7 84 100 5 5 5 58 5 5 1 0
0 0 0 0 0 0 0 0 0 0 0 44 29 0 0 0 0 0 0 0 0 0 0 0 0 0 0 0 0 0 2 20 98 48 9 0 100 1 13 43 5 5 0 0 0
0 0 0 0 0 0 0 0 0 0 9 9 8 0 0 0 0 0 0 0 0 0 0 0 0 0 0 0 0 0 4 8 100 100 78 100 63 100 41 2 3 0 0 0 0
0 0 0 0 0 0 0 0 0 30 17 0 0 0 0 0 0 0 0 0 0 0 0 0 0 0 0 0 0 0 4 10 37 64 92 94 100 19 14 37 4 3 0 0 0
0 0 0 0 0 0 0 0 0 0 0 0 0 0 0 0 0 0 0 0 0 0 0 0 0 0 0 0 0 0 17 84 100 95 100 100 100 100 6 65 14 0 0 0 0
0 0 0 0 0 0 0 0 0 0 0 0 0 0 0 0 0 0 0 0 0 0 0 0 0 0 0 0 0 0 11 58 100 35 80 100 30 0 11 0 0 0 0 0 0
0 0 0 0 0 0 0 0 0 0 0 0 0 0 0 0 0 0 0 0 0 0 0 0 0 0 0 0 0 0 0 8 100 78 29 93 100 90 62 1 0 1 0 0 0
0 0 0 0 0 0 0 0 0 0 0 0 0 0 0 0 0 0 0 0 0 0 0 0 0 0 0 0 0 0 0 6 14 100 9 100 83 6 99 15 0 0 1 0 0
2 5 11 5 0 0 0 0 0 0 0 0 0 0 0 0 0 0 0 0 0 0 0 0 0 0 0 1 0 0 0 0 5 100 11 8 51 81 89 92 46 0 0 0 0
5 5 31 15 24 1 3 4 0 0 0 0 0 0 0 0 0 0 0 0 0 0 0 0 0 0 0 4 0 0 0 0 2 66 100 96 17 90 66 26 100 99 5 0 0
5 5 4 5 5 13 5 5 5 2 15 2 0 0 0 0 0 0 0 0 0 0 0 0 0 0 0 0 4 3 0 0 0 14 8 96 34 95 95 100 40 100 87 30 0
5 4 5 13 5 5 5 0 2 100 68 2 0 0 0 0 0 0 0 0 0 0 0 0 0 0 0 0 0 5 0 0 0 0 2 0 52 46 53 23 96 94 100 70 3
2 0 4 5 5 5 5 5 21 89 5 5 0 0 0 0 0 0 0 0 0 0 0 0 0 0 0 0 0 0 0 0 0 0 5 15 54 7 14 84 36 100 100 100 16
0 0 0 0 0 5 5 21 7 5 5 2 0 1 0 0 5 1 0 0 0 0 0 0 0 0 0 0 0 0 3 0 0 0 0 1 28 100 38 33 27 18 98 100 8
0 0 0 0 0 0 0 5 3 5 5 3 4 5 5 3 2 1 0 0 0 0 0 0 0 0 0 0 0 0 0 0 0 0 0 0 0 2 92 96 51 2 75 94 1
5 0 2 0 2 5 0 0 0 2 0 0 0 0 1 5 4 5 5 0 5 4 0 4 0 0 0 0 0 0 0 0 0 0 0 0 0 88 97 96 95 73 3 0 0
5 2 0 2 2 1 0 0 0 4 5 31 66 0 4 1 0 0 25 78 45 5 16 2 0 0 0 0 0 0 0 0 0 0 0 0 0 2 100 66 89 100 53 10 5
61 4 0 4 14 47 20 2 4 2 26 48 100 100 35 2 5 0 0 5 100 100 42 9 3 0 0 0 3 0 0 0 0 0 0 0 1 5 100 14 80 99 82 100 5
87 49 77 77 5 100 100 100 53 2 71 100 100 100 100 30 14 5 37 14 83 100 21 32 4 0 0 0 25 0 0 0 0 0 0 0 0 3 26 100 12 98 6 93 42
82 84 88 76 6 6 97 100 100 56 100 36 100 100 100 33 91 23 85 97 97 100 23 5 0 0 0 3 8 89 29 5 0 0 0 0 0 3 4 89 100 72 100 96 5
34 32 82 44 79 100 22 49 100 100 86 91 100 67 100 100 59 5 10 5 0 91 100 3 0 3 0 4 100 85 0 5 31 0 0 0 0 0 73 15 94 99 100 91 100